[[{"header":{"parameterUnit":"m.s-1","parameterCategory":1,"la1":30.2991,"la2":30.254,"lo1":-89.0895,"lo2":-89.0444,"dy":0.0017,"dx":0.0017,"nx":28,"ny":28,"refTime":"2024-08-04T09:00:00:Z","depth":0,"parameterNumber":2,"parameterNumberName":"U-component_of_WINDS"},"data":[0,0,0,0,0,0,0,0,0,0,0,0,0,0,0,0,0,0,0,0,0,0,0,0,0,0,0,0,0,0,0,0,0,0,0,0,0,0,0,0,0,0,0,0,0,0,0,0,0,0,0,0,0,0,0,0,0,0,1.5624,1.5625,0,1.5696,1.5696,1.5697,1.5685,1.5684,1.5683,1.5681,1.5751,1.5754,1.5757,0,0,0,0,0,0,0,0,0,0,0,0,0,1.5474,1.5477,1.5624,1.5625,1.5626,1.5695,1.5696,1.5697,1.5685,1.5684,1.5682,1.5681,1.575,1.5754,1.5757,0,0,0,0,0,0,0,0,0,0,0,0,0,1.5541,1.5478,1.5624,1.5629,1.563,1.5695,1.5696,1.5698,1.5686,1.5684,1.5682,1.568,1.5749,1.5753,1.5758,1.5823,0,0,1.5772,1.5774,0,0,0,0,0,0,0,0,1.5538,1.5547,1.5627,1.5628,1.563,1.568,1.5669,1.5739,1.5686,1.5664,1.5681,1.5679,1.5729,1.5735,1.5752,1.5826,1.5829,1.5772,1.5775,1.5777,1.5778,0,0,0,0,0,0,0,1.5533,1.5544,1.5652,1.5628,1.563,1.5626,1.5633,1.5682,1.5706,1.5666,1.5665,1.5674,1.5729,1.5748,1.5754,1.583,1.5772,1.5776,1.5779,1.5781,1.5957,1.5959,0,0,0,0,0,0,1.5528,1.554,1.565,1.5655,1.5578,1.563,1.5638,1.5665,1.5705,1.571,1.5676,1.5673,1.5741,1.5748,1.5756,1.5832,1.5777,1.5781,1.5784,1.5955,1.5958,1.596,0,0,0,0,0,0,1.5524,1.5538,1.5647,1.5597,1.5611,1.5634,1.5665,1.5668,1.5686,1.5713,1.5716,1.5691,1.574,1.575,1.5806,1.5834,1.5783,1.5787,1.5953,1.5956,1.5959,1.5986,0,0,0,0,0,0,1.552,1.5536,1.5562,1.5598,1.5614,1.5697,1.5667,1.5671,1.5695,1.5692,1.5728,1.5732,1.5739,1.5799,1.581,1.584,1.5791,1.5951,1.5954,1.5958,1.5983,1.599,1.5996,0,0,0,0,0,1.5515,1.5567,1.5564,1.5577,1.5647,1.5699,1.5708,1.5716,1.5697,1.5722,1.5739,1.5731,1.583,1.5805,1.5817,1.5849,1.5949,1.5953,1.5958,1.598,1.5988,1.5995,0,0,0,0,0,0,1.5533,1.5572,1.5568,1.5634,1.5663,1.5697,1.5729,1.5725,1.5759,1.5756,1.5764,1.5772,1.5828,1.5844,1.5816,1.5912,1.5886,1.5894,1.5899,1.5907,1.5914,1.5907,1.5794,0,0,0,0,0,1.5545,1.5586,1.5617,1.5671,1.5686,1.5705,1.5728,1.5732,1.5762,1.5774,1.5795,1.5824,1.5861,1.5885,1.5922,1.5986,1.5991,1.6013,1.6019,1.6025,1.603,1.6062,1.6071,1.5975,1.5975,1.5975,0,0,1.557,1.5596,1.5621,1.5676,1.5699,1.5739,1.5716,1.5759,1.5788,1.5781,1.5834,1.5851,1.5883,1.5942,1.597,1.5958,1.6058,1.603,1.6034,1.6037,1.6068,1.6077,1.6085,1.5978,1.5977,1.5977,0,0,1.5634,1.5659,1.5706,1.573,1.5766,1.5778,1.5789,1.5823,1.5833,1.5888,1.5882,1.5916,1.5982,1.6004,1.6024,1.6096,1.6088,1.6108,1.614,1.6172,1.6179,1.6186,1.6209,1.6217,1.6113,1.6113,1.6113,0,1.566,1.5721,1.5731,1.5775,1.5798,1.5794,1.584,1.5863,1.5908,1.5923,1.5909,1.599,1.6011,1.6075,1.6092,1.6109,1.612,1.6102,1.6178,1.6184,1.6191,1.6213,1.6221,1.6115,1.6115,1.6115,1.6115,0,1.5749,1.5792,1.5825,1.5869,1.5897,1.5942,1.5957,1.5983,1.5984,1.5997,1.6051,1.6077,1.6117,1.6133,1.6135,1.6196,1.6187,1.6176,1.615,1.6202,1.6222,1.6231,1.6118,1.6117,1.6117,1.6116,0,0,1.5826,1.5875,1.5887,1.5906,1.5944,1.5976,1.6021,1.6061,1.6082,1.6113,1.6148,1.6203,1.6192,1.6215,1.6219,1.6247,1.6299,1.6231,1.6232,1.6241,1.6364,1.6371,1.6381,1.6295,1.6297,1.6298,1.6361,0,1.5892,1.5971,1.5981,1.605,1.6087,1.6084,1.6122,1.6149,1.6162,1.6195,1.6209,1.6246,1.6231,1.6244,1.6271,1.6287,1.6323,1.6283,1.6325,1.6327,1.6315,1.6392,1.64,1.6457,1.6369,1.6371,1.6372,0,1.5979,1.6013,1.6086,1.6118,1.6134,1.6168,1.6204,1.6237,1.6266,1.6274,1.6299,1.6299,1.6343,1.6317,1.6375,1.6347,1.6366,1.6376,1.6378,1.638,1.6351,1.6394,1.6476,1.6484,1.6385,1.6384,1.6383,0,1.6024,1.6089,1.614,1.6157,1.6196,1.6219,1.6236,1.6265,1.6287,1.6319,1.6333,1.6369,1.6388,1.6416,1.6425,1.6406,1.6482,1.6458,1.6487,1.6487,1.6501,1.65,1.6585,1.6518,1.6518,1.6517,1.6517,0,1.6095,1.6139,1.616,1.6192,1.624,1.6251,1.6298,1.6314,1.6339,1.6372,1.6371,1.6402,1.6414,1.6446,1.6454,1.6499,1.6508,1.6514,1.6515,1.6512,1.6511,1.6523,1.6518,1.652,1.6519,1.6519,1.6518,0,1.6153,1.6169,1.6225,1.6257,1.6266,1.63,1.6327,1.6357,1.637,1.6411,1.6421,1.6441,1.6479,1.6491,1.6537,1.6542,1.6594,1.6593,1.6584,1.6583,1.6611,1.6607,1.6705,1.6717,1.6644,1.6644,1.6645,0,1.6196,1.623,1.6266,1.6288,1.6307,1.6343,1.6366,1.6378,1.6401,1.6437,1.6461,1.6499,1.6529,1.6589,1.6606,1.664,1.6638,1.667,1.6643,1.6639,1.6635,1.6632,1.6634,1.6674,1.6675,1.6676,1.6676,0,1.6269,1.6276,1.631,1.6346,1.6374,1.6404,1.6432,1.645,1.6465,1.6492,1.653,1.6554,1.66,1.6636,1.6671,1.6687,1.6683,1.6685,1.6693,1.6689,1.6682,1.6683,1.6595,1.6682,1.6681,1.6681,1.6681,1.668,1.6319,1.6348,1.6378,1.6415,1.6438,1.6464,1.6492,1.6509,1.6542,1.6581,1.6586,1.6626,1.6653,1.67,1.6717,1.6748,1.6739,1.6751,1.6754,1.6756,1.6757,1.6679,1.6755,1.6755,1.6755,1.6754,1.6754,0,1.639,1.6409,1.6444,1.6483,1.6512,1.6508,1.6539,1.6563,1.6599,1.6625,1.6655,1.6698,1.6733,1.6754,1.6788,1.6808,1.6807,1.6817,1.6814,1.6817,1.6765,1.6753,1.6817,1.6817,1.6817,1.6817,1.6817,1.6817,1.643,1.6478,1.6488,1.6546,1.6565,1.6605,1.6623,1.6646,1.6667,1.6715,1.6745,1.6758,1.6781,1.6817,1.6848,1.6853,1.6864,1.6874,1.6878,1.6828,1.6821,1.6815,1.6804,1.6877,1.6878,1.6927,1.6928,1.6928]},{"header":{"parameterUnit":"m.s-1","parameterCategory":1,"la1":30.2991,"la2":30.254,"lo1":-89.0895,"lo2":-89.0444,"dy":0.0017,"dx":0.0017,"nx":28,"ny":28,"refTime":"2024-08-04T09:00:00:Z","depth":0,"parameterNumber":3,"parameterNumberName":"V-component_of_WINDS"},"data":[0,0,0,0,0,0,0,0,0,0,0,0,0,0,0,0,0,0,0,0,0,0,0,0,0,0,0,0,0,0,0,0,0,0,0,0,0,0,0,0,0,0,0,0,0,0,0,0,0,0,0,0,0,0,0,0,0,0,1.8532,1.8533,0,1.8588,1.8588,1.8589,1.861,1.861,1.8609,1.8609,1.8662,1.8664,1.8666,0,0,0,0,0,0,0,0,0,0,0,0,0,1.8436,1.8438,1.8532,1.8533,1.8533,1.8588,1.8588,1.8589,1.861,1.861,1.8609,1.8609,1.8662,1.8664,1.8666,0,0,0,0,0,0,0,0,0,0,0,0,0,1.8483,1.8438,1.8532,1.855,1.8552,1.8587,1.8588,1.8589,1.861,1.861,1.8609,1.8609,1.8661,1.8664,1.8666,1.8686,0,0,1.8673,1.8674,0,0,0,0,0,0,0,0,1.8481,1.8487,1.8547,1.8549,1.8552,1.8592,1.8574,1.8621,1.861,1.8588,1.8609,1.8609,1.8639,1.8643,1.8654,1.8688,1.869,1.8673,1.8675,1.8676,1.8676,0,0,0,0,0,0,0,1.8477,1.8484,1.8554,1.8548,1.8551,1.8553,1.856,1.8583,1.8614,1.859,1.8591,1.8598,1.864,1.8652,1.8655,1.8691,1.8673,1.8675,1.8677,1.8678,1.8739,1.8739,0,0,0,0,0,0,1.8472,1.8482,1.8552,1.8556,1.8515,1.8555,1.8563,1.8579,1.8614,1.8619,1.8598,1.8599,1.8648,1.8653,1.8657,1.868,1.8676,1.8678,1.8679,1.8739,1.8739,1.8739,0,0,0,0,0,0,1.847,1.8478,1.855,1.8519,1.8528,1.8557,1.8575,1.858,1.8592,1.862,1.8625,1.8605,1.8648,1.8654,1.8678,1.8682,1.8679,1.8681,1.8739,1.8739,1.8739,1.8727,0,0,0,0,0,0,1.8467,1.8477,1.8487,1.8519,1.853,1.8571,1.8576,1.8581,1.8596,1.8598,1.8628,1.8632,1.8648,1.8674,1.868,1.8685,1.8683,1.8738,1.8739,1.8739,1.8727,1.8727,1.8726,0,0,0,0,0,1.8463,1.8481,1.8487,1.8496,1.8543,1.8572,1.8578,1.8597,1.8597,1.8605,1.8622,1.8631,1.868,1.8676,1.8683,1.8689,1.8738,1.8739,1.8739,1.8727,1.8727,1.8726,0,0,0,0,0,0,1.8449,1.8486,1.8493,1.8522,1.8544,1.8575,1.8587,1.8596,1.8617,1.8617,1.8638,1.8645,1.8666,1.868,1.8674,1.8707,1.871,1.8711,1.8698,1.8698,1.8698,1.8694,1.8685,0,0,0,0,0,1.8449,1.8471,1.8501,1.8524,1.8534,1.8558,1.8572,1.8584,1.8606,1.8615,1.8635,1.8655,1.8674,1.8687,1.8707,1.8729,1.8734,1.8736,1.8735,1.8735,1.8736,1.8745,1.8746,1.8741,1.8741,1.8741,0,0,1.8449,1.8472,1.8485,1.8521,1.854,1.8559,1.8566,1.8588,1.8602,1.8618,1.8642,1.8656,1.8679,1.8701,1.8712,1.8713,1.8738,1.8736,1.8735,1.8737,1.8746,1.8746,1.8747,1.8741,1.8741,1.8741,0,0,1.846,1.8481,1.8501,1.8518,1.8545,1.856,1.8564,1.8594,1.8604,1.8628,1.8639,1.8655,1.8689,1.8704,1.8716,1.8728,1.8735,1.8733,1.8732,1.8741,1.8741,1.8741,1.8743,1.8744,1.8734,1.8734,1.8734,0,1.8457,1.8489,1.8509,1.8529,1.8543,1.8559,1.8576,1.8592,1.8623,1.8631,1.8633,1.8674,1.8691,1.8715,1.8717,1.8727,1.873,1.873,1.874,1.874,1.8741,1.8743,1.8743,1.8734,1.8734,1.8734,1.8734,0,1.8483,1.8504,1.8516,1.8546,1.8561,1.858,1.86,1.8613,1.8622,1.8636,1.8658,1.8678,1.8701,1.8707,1.8717,1.8731,1.8731,1.8736,1.8738,1.874,1.8742,1.8743,1.8733,1.8733,1.8733,1.8734,0,0,1.8489,1.8526,1.853,1.8542,1.8571,1.8587,1.8604,1.8627,1.8636,1.8656,1.8669,1.8695,1.8699,1.8712,1.8723,1.8731,1.8735,1.8734,1.8735,1.8732,1.8749,1.8745,1.8745,1.874,1.8741,1.8741,1.8746,0,1.8502,1.8536,1.8552,1.8577,1.8595,1.8608,1.8623,1.864,1.8653,1.8668,1.8681,1.8699,1.8703,1.8711,1.8719,1.8733,1.8739,1.8733,1.8751,1.8751,1.8744,1.8747,1.8743,1.8748,1.8747,1.8748,1.8748,0,1.8523,1.8542,1.857,1.8592,1.86,1.8614,1.8633,1.8649,1.8667,1.8675,1.8688,1.8699,1.8714,1.8715,1.8735,1.8731,1.8739,1.8746,1.8747,1.8749,1.875,1.8748,1.875,1.875,1.875,1.8749,1.8749,0,1.8521,1.8554,1.8574,1.8584,1.8612,1.862,1.8632,1.865,1.8661,1.8678,1.8684,1.8702,1.8712,1.8724,1.8738,1.8737,1.8755,1.8758,1.8761,1.876,1.8765,1.8764,1.8767,1.8771,1.8771,1.8771,1.8771,0,1.8534,1.855,1.8573,1.8585,1.8602,1.8618,1.8633,1.8646,1.8661,1.8674,1.8686,1.8697,1.8714,1.8727,1.8737,1.8751,1.8756,1.8761,1.8763,1.876,1.8759,1.8765,1.8765,1.8771,1.8771,1.8771,1.8771,0,1.8536,1.8553,1.8574,1.8598,1.8604,1.8615,1.8634,1.8644,1.8656,1.8672,1.8676,1.8694,1.8709,1.8724,1.8744,1.8751,1.8764,1.8768,1.8758,1.8759,1.8761,1.876,1.8767,1.8768,1.8772,1.8772,1.8772,0,1.8543,1.8555,1.8579,1.8588,1.86,1.8615,1.8626,1.8641,1.8652,1.8671,1.8679,1.8695,1.8708,1.8731,1.8745,1.876,1.8763,1.8765,1.8766,1.876,1.8761,1.876,1.876,1.8764,1.8764,1.8764,1.8764,0,1.8552,1.8559,1.8575,1.8592,1.8604,1.8619,1.8634,1.864,1.8658,1.8668,1.8684,1.8694,1.8714,1.8729,1.8744,1.8754,1.8761,1.8763,1.8764,1.8761,1.8754,1.8756,1.8756,1.8763,1.8763,1.8763,1.8763,1.8763,1.8556,1.8565,1.8583,1.8599,1.8611,1.8624,1.8634,1.8646,1.866,1.8677,1.8685,1.87,1.8714,1.8736,1.8745,1.8756,1.8757,1.876,1.876,1.876,1.8758,1.8752,1.8759,1.8759,1.8759,1.8759,1.8759,0,1.8564,1.8575,1.8589,1.8609,1.862,1.8626,1.8641,1.865,1.8664,1.8677,1.8689,1.8705,1.8719,1.8733,1.8746,1.8752,1.8755,1.8755,1.8754,1.8756,1.8757,1.8754,1.8752,1.8752,1.8752,1.8752,1.8752,1.8752,1.8569,1.8586,1.8593,1.8614,1.8625,1.864,1.8648,1.8658,1.8669,1.8686,1.8697,1.8706,1.8719,1.8733,1.8745,1.8748,1.8752,1.875,1.8755,1.8755,1.8756,1.8756,1.8754,1.8751,1.8751,1.8752,1.8752,1.8752]}]]